Weather in Davao

Philippines     7°07′09″N   125°36′51″E
temp.,
°C
wind,
m/s
gust,
m/s
humid.,
%
clouds,
%
prec.,
mm/h
press.,
hPa
HPBL,
m
27 february, sat
sat2723:00+25sw127951 0.0 1010183
02:00+24wnw118026 0.1 100997
05:00+24nw22790 0.0 100989
08:00+26nne117313 0.0 1011292
11:00+27ese227764 0.0 1009507
14:00+28s227657 1.3 1007397
17:00+27se227878 1.3 1007303
20:00+26ssw128376 1.3 101098
28 february, sun
sun2823:00+25wsw228589 0.0 1011190
02:00+24nnw228694 0.0 100993
05:00+24nnw2383100 0.0 1010143
08:00+26n3576100 0.0 1012394
11:00+28ene3475100 0.6 1011439
14:00+28se437670 3.4 1008456
17:00+26ese017899 1.6 1008224
20:00+26wnw227775 1.7 101146
1 march, mon
mon123:00+25nnw238354 1.3 1011151
02:00+24nnw358477 3.6 1010241
05:00+24nnw348590 1.8 1011198
08:00+26n358283 3.1 1013358
11:00+28ene227365 0.8 1012639
14:00+28sse327157 1.7 1010390
17:00+27sse017697 1.3 1010216
20:00+25nw338463 1.4 101289
2 march, tue
tue223:00+25nnw3583100 0.0 1012353
02:00+24nnw478596 0.0 1011336
05:00+24nnw478353 0.0 1011369
08:00+26n587748 0.0 1013645
11:00+28nne457019 0.1 1012900
14:00+28e347139 0.3 1009675
17:00+26se218062 0.8 1010272
20:00+25nnw258333 0.8 1012303
3 march, wed
wed323:00+23nnw59830 0.0 1013406
02:00+23nnw58748 0.0 1011362
05:00+23nnw477427 0.0 1012361
08:00+26n587423 0.0 1013708
11:00+28n577128 0.0 10121003
14:00+28nne467064 0.9 1010635
17:00+27nnw037999 1.3 1010262
20:00+25nnw6983100 1.6 1012497